Weather Roundup
Issued by NWS

Home | Current Version | Previous Version | Graphics & Text | Print | Product List | Glossary Off
Versions: 1 2 3 4 5 6 7 8 9 10 11 12 13 14 15 16 17 18 19 20 21 22 23 24 25 26 27 28 29 30 31 32 33 34 35 36 37 38 39 40 41 42 43 44 45 46 47 48 49 50

000
NZUS93 KARX 281310
HRRWXR

CURRENT HOURLY OBSERVATIONS ACROSS
MUCH OF THE UPPER MISSISSIPPI VALLEY
NATIONAL WEATHER SERVICE LA CROSSE WI
800 AM CDT FRI AUG 28 2015


...SOUTHEAST MINNESOTA...


CITY           SKY/WX    TMP DP  RH WIND       PRES   REMARKS
ROCHESTER      RAIN      62  60  93 SW16      30.07R FOG
ROCHESTER/MAYO CLOUDY    63  63 100 SW10      30.07R
WINONA         CLOUDY    63  59  88 CALM      30.06R
AUSTIN         RAIN      63  61  94 S7        30.07R
ALBERT LEA     RAIN      63  63 100 SE6       30.06S
DODGE CENTER   RAIN      63  61  94 SW15G21   30.07R
PRESTON        LGT RAIN  60  58  92 S8        30.08R
OWATONNA       RAIN      63  61  94 S10G16    30.06R
FARIBAULT      LGT RAIN  64  63  94 S8        30.04R
$$

...ELSEWHERE IN MINNESOTA...


CITY           SKY/WX    TMP DP  RH WIND       PRES   REMARKS
MINNEAPOLIS    CLOUDY    65  61  87 S9        30.02R
INTNL FALLS    PTSUNNY   62  61  96 VRB5      29.91S FOG
DULUTH         CLOUDY    61  58  90 SW6       29.97F
RED WING       LGT RAIN  64  61  88 CALM      30.02S
REDWOOD FALLS  CLOUDY    65  63  93 SE9       29.96F
MANKATO        CLOUDY    63  59  88 SE14      30.02S
WORTHINGTON    CLOUDY    63  59  88 E9        29.95S
FAIRMONT       CLOUDY    63  57  82 E9        29.97F
$$

...SOUTHWEST WISCONSIN...


CITY           SKY/WX    TMP DP  RH WIND       PRES   REMARKS
LA CROSSE      CLOUDY    66  60  81 S7        30.06R
PRAIRIE DU CHI CLOUDY    63  58  82 E7        30.08F
BOSCOBEL       CLOUDY    62  59  90 CALM      30.10R
LONE ROCK      CLOUDY    60  58  92 E7        30.10S FOG
PLATTEVILLE    CLOUDY    61  60  96 SE6       30.10F
FORT MC COY    CLOUDY    64  57  78 SW3       30.08S
CAMP DOUGLAS   CLOUDY    61  61 100 S6        30.08R
VIROQUA        PTSUNNY   61  61 100 S5        30.09F
WIS DELLS      CLOUDY    61  57  86 S5        30.11R
$$

...ELSEWHERE IN WISCONSIN...


CITY           SKY/WX    TMP DP  RH WIND       PRES   REMARKS
MILWAUKEE      PTSUNNY   62  57  83 S6        30.15S HAZE
MADISON        CLOUDY    62  56  80 S7        30.12S
GREEN BAY      MOSUNNY   59  56  89 CALM      30.12S FOG
EAU CLAIRE     CLOUDY    63  58  83 S5        30.04R
BLACK RVR FLS  FAIR      62  62  99 CALM      30.06S
MEDFORD        PTSUNNY   58  57  97 S6        30.07S
WAUSAU         PTSUNNY   60  58  92 SE6       30.07S
WIS RAPIDS     CLOUDY    61  56  83 S7        30.09F
MARSHFIELD     CLOUDY    60  56  86 S6        30.08S
RICE LAKE      PTSUNNY   60  58  94 CALM      30.05S
$$

...NORTHEAST IOWA...


CITY           SKY/WX    TMP DP  RH WIND       PRES   REMARKS
DECORAH        CLOUDY    61  59  94 S5        30.08R
MASON CITY     HVY RAIN  61  61 100 E7        30.05F FOG
CHARLES CITY   RAIN      61  61 100 S5        30.09R
OELWEIN          N/A    N/A N/A N/A E3        30.08S
$$

...ELSEWHERE IN IOWA...


CITY           SKY/WX    TMP DP  RH WIND       PRES   REMARKS
DES MOINES     LGT RAIN  65  61  87 SE15      29.96F
IOWA CITY      CLOUDY    62  58  86 E10       30.06F
FORT DODGE     CLOUDY    63  59  88 E16G23    29.91F
$$

...NORTHERN ILLINOIS...


CITY           SKY/WX    TMP DP  RH WIND       PRES   REMARKS
CHICAGO-OHARE  CLOUDY    64  58  80 S5        30.14R
CHICAGO-MIDWAY CLOUDY    65  56  72 S3        30.14R
MOLINE         CLOUDY    62  58  86 E6        30.10F
ROCKFORD       CLOUDY    62  57  83 SE3       30.15R
PEORIA         CLOUDY    64  59  83 CALM      30.13R
$$

NOTE: "FAIR" INDICATES FEW OR NO CLOUDS BELOW 12,000 FEET WITH NO
SIGNIFICANT WEATHER AND/OR OBSTRUCTIONS TO VISIBILITY. WIND
SPEEDS ARE IN MILES-PER-HOUR.



USA.gov is the U.S. government's official web portal to all federal, state and local government web resources and services.